{"data":{"norad_id":44529,"intl_designator":"2019-059B","name":"BNU-1 (JINGSHI 1)","alt_names":[],"object_type":"PAYLOAD","status":"ACTIVE","operator":null,"country":"PRC","launch_date":"2019-09-12","launch_site_code":"TAISC","launch_vehicle":null,"mission":null,"orbit_class":"UNKNOWN","rcs_meters":null,"size_class":null,"mass_kg":null,"dimensions":null,"purposes":[],"wikipedia_slug":null,"has_3d_model":false,"image_url":null,"decayed_at":null,"tle_current":{"epoch":"2026-05-25T03:33:10.344960Z","epoch_age_seconds":58130,"freshness":"FRESH","line1":"1 44529U 19059B   26145.14803640  .00000284  00000+0  88033-4 0  9991","line2":"2 44529  98.6031 273.8100 0014441  84.3629 275.9210 14.48366571353653","mean_motion":14.48366571,"eccentricity":0.0014441,"inclination_deg":98.6031,"raan_deg":273.81,"arg_perigee_deg":84.3629,"mean_anomaly_deg":275.921,"bstar":8.8033e-5,"rev_number":35365,"period_min":99.422344372791,"perigee_km":720.7221886175,"apogee_km":741.25476481936,"semimajor_km":7109.1254767184,"source":"CELESTRAK","updated_at":"2026-05-25T13:37:56.000287Z"}}}